Location: ????????
(55.6189°N, 38.3031°E)
Time: 21:14:52
(UTC+00:00)

ASTEX 1 - Pass Details

Date: 15 November 2019
Orbit: 721 x 743 km, 92.7° (Epoch: 14 December)

Event Time Altitude Azimuth Distance (km) Brightness Sun altitude
Rises 01:29:05 0° 157° (SSE) 3,156 6.8 -29.4°
Reaches altitude 10° 01:31:23 10° 153° (SSE) 2,241 6.1 -29.1°
Maximum altitude 01:36:13 55° 77° (ENE) 894 4.0 -28.4°
Drops below altitude 10° 01:41:07 10° 1° (N) 2,268 6.0 -27.7°
Sets 01:43:28 0° 357° (N) 3,198 6.8 -27.4°
